Location: Brunsbüttel
(52.3892°N, 10.6138°E)
Time: 00:26:36
(UTC+00:00)

Meteor 1-27 Rocket - Pass Details

Date: 19 May 2025
Orbit: 830 x 908 km, 81.3° (Epoch: 23 June)

Event Time Altitude Azimuth Distance (km) Brightness Sun altitude
Exits shadow 22:30:55 23° 199° (SSW) 1,718 4.8 -17.0°
Maximum altitude 22:34:29 78° 283° (WNW) 865 3.7 -17.1°
Drops below altitude 10° 22:40:03 10° 11° (N) 2,456 7.2 -17.3°
Sets 22:42:28 0° 13° (NNE) 3,390 8.2 -17.3°
